Metropolis, IL

7:32 PM CST on November 20, 2017 (GMT -0600)
Metropolis

Weather History for KM30 - April, 2013

Change the Weather History Date:

Thursday, April 18, 2013

  Actual Average (KPAH) Record (KPAH)
Temperature  
Mean Temperature 62 °F -  
Max Temperature 79 °F 71 °F 86 °F (2002)
Min Temperature 45 °F 48 °F 29 °F (2001)
Degree Days  
Heating Degree Days 3    
Growing Degree Days 12 (Base 50)    
Moisture  
Dew Point 61 °F    
Average Humidity 71    
Maximum Humidity 100    
Minimum Humidity 49    
Precipitation  
Precipitation 1.17 in - - ()
Sea Level Pressure  
Sea Level Pressure 29.73 in    
Wind  
Wind Speed 13 mph (SSW)    
Max Wind Speed 21 mph    
Max Gust Speed 34 mph    
Visibility 9 miles    
Events Rain , Thunderstorm    
Averages and records for this station are not official NWS values.
T = Trace of Precipitation, MM = Missing Value Source: NWS Daily Summary

Daily Weather History Graph

Daily Weather History Graph

Search for Another Location

Airport or City:

Trip Planner

Search our weather history database for the weather conditions in past years. The results will help you decide how hot, cold, wet, or windy it might be!

Date:

Astronomy

Apr. 18, 2013 Rise Set
Actual Time 6:16 AM CDT 7:32 PM CDT
Civil Twilight 5:49 AM CDT 8:00 PM CDT
Nautical Twilight 5:16 AM CDT 8:32 PM CDT
Astronomical Twilight 4:43 AM CDT 9:06 PM CDT
Moon 12:29 PM CDT (4/18) 1:45 AM CDT (4/18)
Length of Visible Light 14h 10m
Length of Day
13h 16m
First Quarter, 52% of the Moon is Illuminated
Apr 18
First Quarter
Apr 25
Full
May 2
Last Quarter
May 9
New
May 17
First Quarter

Hourly Weather History & Observations

Time (CDT) Temp. Windchill Dew Point Humidity Pressure Visibility Wind Dir Wind Speed Gust Speed Precip Events Conditions
12:15 AM 76.1 °F - 63.0 °F 64% 29.83 in 10.0 mi South 9.2 mph 16.1 mph N/A   Clear
12:35 AM 75.7 °F - 63.1 °F 65% 29.83 in 10.0 mi South 9.2 mph 23.0 mph N/A   Clear
12:55 AM 75.4 °F - 63.1 °F 66% 29.82 in 10.0 mi South 10.4 mph 18.4 mph N/A   Clear
1:15 AM 75.2 °F - 63.5 °F 67% 29.82 in 10.0 mi South 9.2 mph 18.4 mph N/A   Clear
1:35 AM 75.2 °F - 63.7 °F 67% 29.81 in 10.0 mi South 11.5 mph 17.3 mph N/A   Clear
1:55 AM 75.4 °F - 64.0 °F 68% 29.80 in 10.0 mi South 13.8 mph 20.7 mph N/A   Clear
2:15 AM 75.7 °F - 64.4 °F 68% 29.79 in 10.0 mi South 15.0 mph 20.7 mph N/A   Clear
2:35 AM 75.4 °F - 64.6 °F 69% 29.78 in 10.0 mi South 12.7 mph 23.0 mph N/A   Clear
2:55 AM 75.4 °F - 64.9 °F 70% 29.77 in 10.0 mi South 11.5 mph 20.7 mph N/A   Clear
3:15 AM 75.2 °F - 64.9 °F 70% 29.77 in 10.0 mi South 12.7 mph 20.7 mph N/A   Clear
3:35 AM 75.2 °F - 64.8 °F 70% 29.76 in 10.0 mi South 12.7 mph 21.9 mph N/A   Clear
3:55 AM 75.2 °F - 64.8 °F 70% 29.76 in 10.0 mi South 13.8 mph 21.9 mph N/A   Clear
4:15 AM 74.7 °F - 64.8 °F 71% 29.77 in 10.0 mi South 12.7 mph 18.4 mph N/A   Clear
4:35 AM 74.5 °F - 64.8 °F 72% 29.76 in 10.0 mi South 13.8 mph 23.0 mph N/A   Scattered Clouds
4:55 AM 74.3 °F - 64.8 °F 72% 29.77 in 10.0 mi South 11.5 mph 23.0 mph N/A   Mostly Cloudy
5:15 AM 74.3 °F - 64.8 °F 72% 29.77 in 10.0 mi South 13.8 mph 20.7 mph N/A   Scattered Clouds
5:35 AM 73.6 °F - 64.8 °F 74% 29.77 in 10.0 mi South 13.8 mph 21.9 mph N/A   Clear
5:55 AM 73.8 °F - 64.6 °F 73% 29.76 in 10.0 mi South 15.0 mph 24.2 mph N/A   Clear
6:15 AM 73.4 °F - 64.4 °F 73% 29.77 in 10.0 mi South 15.0 mph 23.0 mph N/A   Clear
6:35 AM 73.4 °F - 64.0 °F 72% 29.77 in 10.0 mi South 16.1 mph 28.8 mph N/A   Clear
6:55 AM 73.2 °F - 64.0 °F 73% 29.78 in 10.0 mi South 16.1 mph 25.3 mph N/A   Clear
7:15 AM 73.0 °F - 64.2 °F 74% 29.78 in 10.0 mi South 19.6 mph 24.2 mph N/A   Scattered Clouds
7:35 AM 73.4 °F - 64.4 °F 73% 29.78 in 10.0 mi South 20.7 mph 26.5 mph N/A   Mostly Cloudy
7:55 AM 73.8 °F - 64.4 °F 72% 29.78 in 10.0 mi South 15.0 mph 27.6 mph N/A   Overcast
8:15 AM 73.9 °F - 64.4 °F 72% 29.77 in 10.0 mi South 16.1 mph 27.6 mph N/A   Overcast
8:35 AM 74.3 °F - 64.2 °F 71% 29.77 in 10.0 mi South 10.4 mph 25.3 mph N/A   Mostly Cloudy
8:55 AM 74.8 °F - 63.9 °F 69% 29.75 in 10.0 mi South 18.4 mph 31.1 mph N/A   Mostly Cloudy
9:15 AM 75.4 °F - 63.7 °F 67% 29.74 in 10.0 mi South 19.6 mph 29.9 mph N/A   Scattered Clouds
9:35 AM 75.2 °F - 63.1 °F 66% 29.75 in 10.0 mi South 15.0 mph 34.5 mph N/A   Scattered Clouds
9:55 AM 75.4 °F - 63.0 °F 65% 29.76 in 10.0 mi South 13.8 mph 34.5 mph N/A   Mostly Cloudy
10:15 AM 74.7 °F - 62.6 °F 66% 29.76 in 10.0 mi South 16.1 mph 32.2 mph N/A   Overcast
10:35 AM 75.2 °F - 62.2 °F 64% 29.75 in 10.0 mi South 13.8 mph 33.4 mph N/A   Mostly Cloudy
10:55 AM 76.5 °F - 62.8 °F 62% 29.75 in 10.0 mi South 18.4 mph 27.6 mph N/A   Mostly Cloudy
11:15 AM 77.4 °F - 62.4 °F 60% 29.77 in 10.0 mi South 19.6 mph 27.6 mph N/A   Mostly Cloudy
11:35 AM 76.3 °F - 62.1 °F 61% 29.76 in 10.0 mi South 18.4 mph 25.3 mph N/A   Mostly Cloudy
11:55 AM 77.0 °F - 61.9 °F 59% 29.75 in 10.0 mi South 18.4 mph 31.1 mph N/A   Mostly Cloudy
12:15 PM 76.8 °F - 61.3 °F 59% 29.73 in 10.0 mi South 17.3 mph 25.3 mph N/A   Mostly Cloudy
12:35 PM 77.9 °F - 60.1 °F 54% 29.71 in 10.0 mi South 17.3 mph 26.5 mph N/A   Overcast
12:55 PM 77.5 °F - 59.5 °F 54% 29.72 in 10.0 mi South 18.4 mph 27.6 mph N/A   Overcast
1:15 PM 77.9 °F - 59.0 °F 52% 29.71 in 10.0 mi South 17.3 mph 29.9 mph N/A   Overcast
1:35 PM 79.3 °F - 59.9 °F 51% 29.71 in 10.0 mi South 15.0 mph 26.5 mph N/A   Mostly Cloudy
1:55 PM 78.1 °F - 58.8 °F 51% 29.70 in 10.0 mi South 17.3 mph 28.8 mph N/A   Mostly Cloudy
2:15 PM 78.3 °F - 58.8 °F 51% 29.70 in 10.0 mi South 16.1 mph 32.2 mph N/A   Mostly Cloudy
2:35 PM 78.6 °F - 59.5 °F 52% 29.68 in 10.0 mi South 13.8 mph 25.3 mph N/A   Mostly Cloudy
2:55 PM 78.8 °F - 59.2 °F 51% 29.68 in 10.0 mi South 16.1 mph 21.9 mph N/A   Mostly Cloudy
3:15 PM 78.1 °F - 59.0 °F 52% 29.67 in 10.0 mi South 13.8 mph 25.3 mph N/A   Overcast
3:35 PM 78.3 °F - 57.9 °F 49% 29.67 in 10.0 mi SSW 19.6 mph 26.5 mph N/A   Overcast
3:55 PM 77.9 °F - 58.1 °F 50% 29.66 in 10.0 mi South 13.8 mph 21.9 mph N/A   Overcast
4:15 PM 77.9 °F - 58.6 °F 51% 29.64 in 10.0 mi South 12.7 mph - N/A   Overcast
4:35 PM 77.4 °F - 59.0 °F 53% 29.64 in 10.0 mi South 12.7 mph 18.4 mph N/A Rain Light Rain
4:55 PM 77.0 °F - 59.5 °F 55% 29.62 in 10.0 mi South 10.4 mph 17.3 mph N/A   Overcast
5:15 PM 76.8 °F - 60.1 °F 56% 29.62 in 10.0 mi SW 6.9 mph - N/A Thunderstorm Overcast
5:35 PM 70.0 °F - 61.3 °F 74% 29.65 in 10.0 mi West 13.8 mph 21.9 mph N/A Rain , Thunderstorm Thunderstorms and Rain
5:55 PM 65.5 °F - 64.4 °F 96% 29.65 in 3.0 mi West 8.1 mph 16.1 mph 0.22 in Rain Rain
6:15 PM 65.3 °F - 64.9 °F 99% 29.66 in 7.0 mi West 8.1 mph - 0.01 in Rain Rain
6:35 PM 65.3 °F - 65.3 °F 100% 29.66 in 4.0 mi West 3.5 mph - 0.06 in Rain Rain
6:55 PM 65.1 °F - 65.1 °F 100% 29.65 in 2.5 mi West 4.6 mph - 0.13 in Rain Rain
7:15 PM 65.3 °F - 65.3 °F 100% 29.64 in 5.0 mi WSW 3.5 mph - 0.03 in Rain Rain
7:35 PM 65.3 °F - 65.3 °F 100% 29.65 in 2.5 mi SW 3.5 mph - 0.18 in Rain Rain
7:55 PM 65.3 °F - 65.3 °F 100% 29.64 in 4.0 mi Calm Calm - 0.25 in Rain Rain
8:15 PM 64.9 °F - 64.9 °F 100% 29.63 in 5.0 mi NW 4.6 mph - 0.04 in Rain Rain
8:35 PM 55.2 °F - 54.9 °F 99% 29.67 in 3.0 mi WNW 19.6 mph 27.6 mph 0.26 in Rain Heavy Rain
10:15 PM 48.7 °F - 48.2 °F 98% 29.72 in 10.0 mi WNW 13.8 mph 18.4 mph 0.02 in Rain Rain
10:35 PM 47.7 °F - 47.5 °F 99% 29.72 in 5.0 mi WNW 12.7 mph 18.4 mph 0.12 in Rain Heavy Rain
10:55 PM 46.6 °F - 46.4 °F 99% 29.73 in 5.0 mi WNW 11.5 mph - 0.23 in Rain Heavy Rain
11:15 PM 46.0 °F 39.3 °F 44.8 °F 95% 29.73 in 7.0 mi NW 16.1 mph 23.0 mph 0.03 in Rain Heavy Rain
11:35 PM 45.5 °F 39.9 °F 44.6 °F 97% 29.73 in 7.0 mi WNW 11.5 mph 18.4 mph 0.08 in Rain Rain
11:55 PM 45.5 °F 39.2 °F 43.2 °F 92% 29.74 in 10.0 mi WNW 13.8 mph 23.0 mph 0.08 in   Overcast